Weather Roundup
Issued by NWS Chicago, IL

Home | Current Version | Previous Version | Graphics & Text | Print | Product List | Glossary On
Versions: 1 2 3 4 5 6 7 8 9 10 11 12 13 14 15 16 17 18 19 20 21 22 23 24 25 26 27 28 29 30 31 32 33 34 35 36 37 38 39 40 41 42 43 44 45 46 47 48 49 50
000
NZUS59 KLOT 260608
HRRLOT

CHICAGO AREA WEATHER ROUNDUP
NATIONAL WEATHER SERVICE CHICAGO/ROMEOVILLE IL
100 AM CDT THU MAY 26 2016

NOTE: "FAIR" INDICATES FEW OR NO CLOUDS BELOW 12,000 FEET WITH NO
SIGNIFICANT WEATHER AND/OR OBSTRUCTIONS TO VISIBILITY.

* THESE STATIONS ARE NOT UNDER NWS QUALITY CONTROL. THEY ALSO MAY NOT
  REPORT WEATHER SUCH AS PRECIPITATION OR FOG.

ILZ005-006-012>014-019>023-260700-
NORTHEAST ILLINOIS

CITY           SKY/WX    TMP DP  RH WIND       PRES   REMARKS
OHARE          MOCLDY    65  63  93 SE10      29.93F
6HR MIN TEMP:  65; 6HR MAX TEMP:  68; 6HR PCP:  0.16;

MIDWAY         CLEAR     65  61  87 E6        29.94F
6HR MIN TEMP:  65; 6HR MAX TEMP:  69; 6HR PCP:  0.17;

AURORA         PTCLDY    67  64  90 SE5       29.93F
6HR MIN TEMP:  66; 6HR MAX TEMP:  70; 6HR PCP:  0.02;

LANSING*       CLEAR     64  60  88 E5        29.95F
JOLIET*        CLEAR     70  66  87 CALM      29.93F
WAUKEGAN       PTCLDY    66  65  96 S8        29.91F
6HR MIN TEMP:  63; 6HR MAX TEMP:  67; 6HR PCP:  0.42;

DUPAGE AIRPORT CLOUDY    67  64  90 SE9       29.92F FOG
6HR MIN TEMP:  66; 6HR MAX TEMP:  67; 6HR PCP:  0.10;

WHEELING       MOCLDY    65  64  97 S9        29.93F
6HR MIN TEMP:  65; 6HR MAX TEMP:  68; 6HR PCP:  0.65;

KANKAKEE*      CLEAR    N/A N/A N/A S10       29.96F
MORRIS*        CLEAR     71  64  77 S6        29.92F
LEWIS AIRPORT* MOCLDY    68  63  83 S6        29.93F
$$

WIZ051-052-058>065-066-070>072-260700-
SOUTHEAST WISCONSIN

CITY           SKY/WX    TMP DP  RH WIND       PRES   REMARKS
MILWAUKEE      PTCLDY    63  61  93 S7        29.90F
6HR MIN TEMP:  53; 6HR MAX TEMP:  63; 6HR PCP:  0.04;

KENOSHA*       PTCLDY    66  63  90 S9        29.91F
RACINE*        MOCLDY    61  60  97 S3        29.92F
BURLINGTON     CLEAR     62  62 100 S3        29.91F
WAUKESHA       PTCLDY    61  61 100 S6        29.91F FOG
$$

INZ001>003-010>013-019-020-260700-
NORTHWEST INDIANA

CITY           SKY/WX    TMP DP  RH WIND       PRES   REMARKS
GARY*          PTCLDY    65  65 100 SE3       29.95F
6HR MIN TEMP:  65; 6HR MAX TEMP:  74;

MICHIGAN CITY* NOT AVBL
RENSSELAER*    NOT AVBL
VALPARAISO     MOCLDY    70  62  76 S7        29.97F
$$

LMZ740>746-260700-
SOUTHERN LAKE MICHIGAN

STATION/POSITION TIME  SKY/WX   TEMP WIND        PRES    VSBY
                                AIR  DIR/SP/G
                 (UTC)          (F)  (DEG/KT/KT) (MB)    (MI)
HARRISON CRIB    0520            60  170/ 15/ 17   N/A
BURNHAM HARBOR   0600            59  150/  1/  6   N/A
CALUMET HARBOR   0500            63   80/  9/ 14 1014.1F
BURNS HARBOR     0500            66  100/  6/  9 1015.2F
MICHIGAN CITY    0500            64   70/  9/ 11   N/A
$$

ABBREVIATIONS USED IN REMARKS
   TC - TEMPERATURE IN CELSIUS
  WCI - WIND CHILL INDEX
   HX - HEAT INDEX
  VSB - VISIBILITY
$$




USA.gov is the U.S. government's official web portal to all federal, state and local government web resources and services.